#timestamp,LO_Frequency,Hit 
1504537215.8,286046992.6,N
1504537235.6,286046995.6,N
1504537255.4,286047000.3,N
1504537275.3,286047003.9,N
1504537295.1,286047002.4,N
1504537296.0,286047002.4,N
1504537315.8,286047002.4,N
1504537335.7,286047000.4,N
1504537355.5,286046996.8,N
1504537375.3,286046995.0,N
1504537395.1,286046995.6,N
1504537415.9,286046996.0,N
1504537435.7,286046993.3,N
1504537455.5,286046997.2,N
1504537475.4,286046995.4,N
1504537495.2,286046997.8,N
1504537515.0,286046996.7,N
1504537515.9,286046996.7,N
1504537535.8,286046998.5,N
1504537555.6,286046999.3,N
1504537575.4,286046997.9,N
1504537595.3,286046996.5,N
1504537615.1,286046998.9,N
1504537616.0,286046998.9,N
1504537635.8,286046999.0,N
1504537655.7,286046997.7,N
1504537675.5,286046998.2,N
1504537695.3,286046999.6,N
1504537715.2,286046993.9,N
1504537735.9,286046995.2,N
1504537755.7,286046997.7,N
1504537775.5,286046997.6,N
1504537795.4,286046995.4,N
1504537815.2,286046994.1,N
1504537835.0,286046993.4,N
1504537835.9,286046993.4,N
1504537855.8,286046992.4,P
1504537875.6,286046995.5,N
1504537895.4,286046995.4,N
1504537915.3,286046995.8,N
1504537935.1,286046996.4,N
1504537955.8,286046996.7,N
1504537975.7,286046995.5,P
1504537995.5,286046998.8,P
1504538015.3,286047002.2,N
1504538035.2,286047001.4,N
1504538055.0,286047002.0,N
1504538055.9,286047002.0,N
1504538075.7,286047000.2,N
1504538095.6,286047003.8,N
1504538115.4,286047000.1,N
1504538135.2,286047001.2,N
1504538155.1,286047002.1,N
1504538156.0,286047002.1,N
1504538175.8,286047001.3,N
1504538195.6,286047001.4,N
1504538215.5,286046999.7,N
1504538235.3,286047001.0,N
1504538255.1,286047001.6,N
1504538275.9,286047001.8,N
1504538295.7,286047003.0,N
1504538315.5,286047003.1,N
1504538335.3,286047005.2,N
1504538355.2,286047003.1,N
1504538375.0,286047005.0,N
1504538375.9,286047005.0,N
1504538395.7,286047005.0,N
1504538415.6,286047003.5,N
1504538435.4,286047003.2,N
1504538455.2,286047004.6,N
1504538475.1,286047005.8,N
1504538476.0,286047005.8,N
1504538495.8,286047005.5,N
1504538515.6,286047008.8,P
1504538535.5,286047007.3,N
1504538555.3,286047005.7,N
1504538575.1,286047004.4,N
1504538595.9,286047001.5,N
1504538615.7,286047003.7,N
1504538635.5,286047004.4,N
1504538655.4,286047000.0,N
1504538675.2,286047001.6,N
1504538695.0,286047003.6,N
1504538695.9,286047003.6,N
1504538715.8,286047005.9,N
1504538735.6,286047005.3,N
1504538755.4,286047004.3,N
1504538775.3,286046998.5,N
1504538795.1,286047001.0,N
1504538796.0,286047001.0,N
1504538815.8,286046999.6,N
1504538835.7,286046997.4,N
1504538855.5,286046996.8,N
1504538875.3,286046995.6,N
1504538895.1,286046998.8,N
1504538915.9,286047000.7,N
1504538935.7,286047002.1,N
1504538955.5,286047003.2,N
1504538975.4,286047003.3,N
1504538995.2,286047002.9,N
1504539015.0,286047004.7,N
1504539015.9,286047004.7,N
1504539035.8,286047003.4,N
1504539055.6,286047004.7,N
1504539075.4,286047005.4,N
1504539095.3,286047004.0,N
1504539115.1,286047002.9,N
1504539116.0,286047002.9,N
1504539135.8,286047003.7,N
1504539155.6,286047005.7,N
1504539175.5,286047007.2,N
1504539195.3,286047007.1,N
1504539215.1,286047006.4,N
1504539235.9,286047005.4,N
1504539255.7,286047003.9,N
1504539275.5,286047005.7,N
1504539295.4,286047002.6,N
1504539315.2,286047004.2,N
1504539335.0,286047000.4,N
1504539335.9,286047000.4,N
1504539355.8,286046996.6,N
1504539375.6,286047001.1,N
1504539395.4,286047006.0,N
1504539415.3,286047005.3,N
1504539435.1,286047003.7,N
1504539436.0,286047003.7,N
1504539455.8,286047005.6,N
1504539475.7,286047005.8,N
1504539495.5,286047002.7,N
1504539515.3,286046998.2,N
1504539535.1,286047001.5,N
1504539555.9,286047002.2,N
1504539575.7,286047004.4,N
1504539595.5,286047005.1,N
1504539615.4,286047005.7,N
1504539635.2,286047005.2,N
1504539655.0,286047006.4,N
1504539655.9,286047006.4,N
1504539675.8,286047010.4,P
1504539695.6,286047003.8,N
1504539715.4,286046999.6,N
1504539735.3,286046999.3,N
1504539755.1,286046998.5,N
1504539775.8,286046996.7,N
1504539795.7,286047004.0,N
1504539815.5,286047005.2,N
1504539835.3,286047001.8,N
1504539855.2,286047001.3,N
1504539875.9,286047003.4,N
1504539895.7,286047001.3,N
1504539915.6,286047001.8,N
1504539935.4,286047004.4,N
1504539955.2,286047000.6,N
1504539975.0,286047000.0,N
1504539975.9,286047000.0,N
1504539995.8,286047003.7,N
1504540015.6,286046999.3,N
1504540035.4,286047000.1,N
1504540055.3,286047002.4,N
1504540075.1,286047003.5,N
1504540095.8,286047003.3,N
1504540115.7,286047002.8,N
1504540135.5,286047000.3,N
1504540155.3,286047002.0,N
1504540175.2,286047000.2,N
1504540195.9,286047002.5,N
1504540215.7,286047003.9,N
1504540235.6,286047003.2,N
1504540255.4,286047002.5,N
1504540275.2,286047001.4,N
1504540295.0,286046998.7,N
1504540295.9,286046998.7,N
1504540315.8,286046994.7,N
1504540335.6,286046995.2,N
1504540355.4,286046996.5,N
1504540375.3,286047001.1,N
1504540395.1,286046999.2,N
1504540415.8,286046995.4,N
1504540435.7,286046994.9,N
1504540455.5,286047000.6,N
1504540475.3,286046998.3,N
1504540495.2,286047001.6,N
1504540515.9,286047003.4,N
1504540535.7,286047003.1,N
1504540555.6,286047004.1,N
1504540575.4,286047003.0,N
1504540595.2,286047003.2,N
1504540615.0,286047004.1,N
1504540616.0,286047004.1,N
1504540635.8,286047006.0,N
1504540655.6,286047004.1,N
1504540675.4,286047004.0,N
1504540695.3,286047001.4,N
1504540715.1,286047000.6,N
1504540735.8,286047001.5,N
1504540755.7,286047004.0,N
1504540775.5,286047003.9,N
1504540795.3,286047001.2,N
